Syracuse, NY

2:09 AM EDT on October 23, 2019 (GMT -0400)
Syracuse Hancock International

Weather History for KSYR - September, 2019

Change the Weather History Date:

Saturday, September 21, 2019

  Actual Average Record
Temperature  
Mean Temperature 68 °F 60 °F  
Max Temperature 82 °F 70 °F 91 °F (1931)
Min Temperature 52 °F 50 °F 35 °F (1929)
Degree Days  
Heating Degree Days 0 6  
Month to date heating degree days 43 71  
Since 1 July heating degree days 48 97  
Cooling Degree Days 2 1  
Month to date cooling degree days 24 46  
Year to date cooling degree days 592 559  
Growing Degree Days 18 (Base 50)    
Moisture  
Dew Point 53 °F    
Average Humidity 66    
Maximum Humidity 96    
Minimum Humidity 26    
Precipitation  
Precipitation 0.00 in 0.13 in 1.40 in (1913)
Month to date precipitation 2.04 2.54  
Year to date precipitation 32.68 27.13  
Snow  
Snow 0.00 in 0.00 in 0.00 in (2002)
Month to date snowfall 0.0 0.0  
Since 1 July snowfall T 0.0  
Since 1 September snowfall 0.0 0.0  
Snow Depth 0.00 in    
Sea Level Pressure  
Sea Level Pressure 30.18 in    
Wind  
Wind Speed 3 mph ()    
Max Wind Speed 8 mph    
Max Gust Speed 9 mph    
Visibility 10.0 miles    
Events      
T = Trace of Precipitation, MM = Missing Value Source: Averaged Metar Reports

Daily Weather History Graph

Daily Weather History Graph

Search for Another Location

Airport or City:

Astronomy

Sep. 21, 2019 Rise Set
Actual Time 6:50 AM EDT 7:04 PM EDT
Civil Twilight 6:21 AM EDT 7:32 PM EDT
Nautical Twilight 5:48 AM EDT 8:05 PM EDT
Astronomical Twilight 5:14 AM EDT 8:39 PM EDT
Moon 11:29 PM EDT (9/21) 2:04 PM EDT (9/21)
Length of Visible Light 13h 10m
Length of Day
12h 13m
Waning Gibbous, 55% of the Moon is Illuminated
Sep 21
Waning Gibbous
Sep 21
Last Quarter
Sep 28
New
Oct 5
First Quarter
Oct 13
Full

Hourly Weather History & Observations

Time (EDT) Temp. Heat Index Dew Point Humidity Pressure Visibility Wind Dir Wind Speed Gust Speed Precip Events Conditions
12:54 AM 59.0 °F - 54.0 °F 83% 30.19 in 10.0 mi ESE 3.5 mph - N/A   Mostly Cloudy
1:54 AM 59.0 °F - 54.0 °F 83% 30.20 in 10.0 mi ESE 3.5 mph - N/A   Mostly Cloudy
2:54 AM 57.9 °F - 53.1 °F 84% 30.19 in 10.0 mi ESE 4.6 mph - N/A   Mostly Cloudy
3:54 AM 57.9 °F - 53.1 °F 84% 30.20 in 10.0 mi Calm Calm - N/A   Scattered Clouds
4:54 AM 53.1 °F - 51.1 °F 93% 30.20 in 10.0 mi ENE 4.6 mph - N/A   Mostly Cloudy
5:54 AM 54.0 °F - 52.0 °F 93% 30.20 in 10.0 mi Calm Calm - N/A   Mostly Cloudy
6:54 AM 52.0 °F - 50.0 °F 93% 30.22 in 10.0 mi SE 3.5 mph - N/A   Mostly Cloudy
7:54 AM 55.9 °F - 52.0 °F 87% 30.23 in 10.0 mi ESE 3.5 mph - N/A   Partly Cloudy
8:54 AM 61.0 °F - 53.1 °F 75% 30.25 in 10.0 mi Calm Calm - N/A   Partly Cloudy
9:54 AM 66.9 °F - 54.0 °F 63% 30.24 in 10.0 mi Calm Calm - N/A   Partly Cloudy
10:54 AM 70.0 °F - 57.0 °F 63% 30.24 in 10.0 mi East 3.5 mph - N/A   Partly Cloudy
11:54 AM 73.9 °F - 55.0 °F 52% 30.22 in 10.0 mi East 6.9 mph - N/A   Partly Cloudy
12:54 PM 75.9 °F - 55.0 °F 48% 30.20 in 10.0 mi Variable 3.5 mph - N/A   Partly Cloudy
1:54 PM 80.1 °F 80.1 °F 55.0 °F 42% 30.18 in 10.0 mi Variable 4.6 mph - N/A   Partly Cloudy
2:54 PM 80.1 °F - 48.0 °F 32% 30.17 in 10.0 mi Calm Calm - N/A   Partly Cloudy
3:54 PM 82.0 °F - 46.0 °F 28% 30.15 in 10.0 mi Calm Calm - N/A   Partly Cloudy
4:54 PM 82.0 °F - 45.0 °F 27% 30.14 in 10.0 mi West 3.5 mph - N/A   Partly Cloudy
5:54 PM 78.1 °F - 55.0 °F 45% 30.14 in 10.0 mi NNE 6.9 mph - N/A   Partly Cloudy
6:54 PM 73.0 °F - 54.0 °F 51% 30.14 in 10.0 mi Calm Calm - N/A   Partly Cloudy
7:54 PM 66.9 °F - 54.0 °F 63% 30.15 in 10.0 mi Calm Calm - N/A   Partly Cloudy
8:54 PM 64.9 °F - 55.0 °F 70% 30.15 in 10.0 mi ESE 3.5 mph - N/A   Partly Cloudy
9:54 PM 63.0 °F - 55.9 °F 78% 30.15 in 10.0 mi ESE 5.8 mph - N/A   Clear
10:54 PM 62.1 °F - 55.0 °F 78% 30.14 in 10.0 mi ESE 4.6 mph - N/A   Clear
11:54 PM 61.0 °F - 55.0 °F 81% 30.14 in 10.0 mi East 4.6 mph - N/A   Clear